Location: Unspecified
(42.1900°N, 71.3291°W)
Time: 21:07:11
(UTC-04:00)

ISS - Visible Passes

Search period start: 20 May 2018 00:00
Search period end: 30 May 2018 00:00
Orbit: 402 x 407 km, 51.6° (Epoch: 21 May)

Date Brightness Start Highest point End Pass type
(mag) Time Alt. Az. Time Alt. Az. Time Alt. Az.
20 May -1.1 00:16:29 20° N 00:16:29 20° N 00:18:41 10° NE visible
20 May -0.7 01:51:24 10° NW 01:53:33 16° N 01:55:42 10° NE visible
20 May -2.1 03:27:40 10° NW 03:30:44 35° NNE 03:33:46 10° E visible
20 May -3.9 21:43:56 10° SW 21:47:08 56° SE 21:50:21 10° ENE visible
20 May -1.6 23:21:00 10° W 23:23:49 26° NNW 23:26:37 10° NE visible
21 May -0.7 00:59:02 10° NW 01:01:06 15° N 01:03:10 10° NE visible
21 May -1.4 02:35:38 10° NW 02:38:25 25° NNE 02:41:11 10° ENE visible
21 May -3.9 04:11:53 10° WNW 04:15:06 61° SW 04:18:20 10° SE visible
21 May -3.0 20:52:11 10° SSW 20:55:04 29° SE 20:57:58 10° ENE visible
21 May -2.3 22:28:24 10° W 22:31:29 37° NNW 22:34:34 10° NE visible
22 May -0.7 00:06:28 10° NW 00:08:38 16° N 00:10:49 10° NE visible
22 May -1.0 01:43:33 10° NW 01:46:02 19° NNE 01:48:30 10° ENE visible
22 May -3.6 03:19:41 10° NW 03:22:57 71° NNE 03:26:11 10° ESE visible
22 May -3.3 21:35:59 10° WSW 21:39:13 62° NNW 21:42:28 10° NE visible
22 May -0.9 23:13:47 10° WNW 23:16:12 19° NNW 23:18:36 10° NE visible
23 May -0.8 00:51:21 10° NW 00:53:35 17° N 00:55:48 10° NE visible
23 May -2.6 02:27:34 10° NW 02:30:42 41° NNE 02:33:49 10° E visible
23 May -2.8 04:04:18 10° WNW 04:07:03 25° SW 04:09:48 10° SSE visible
23 May -3.9 20:43:46 10° SW 20:47:01 72° SE 20:50:17 10° ENE visible
23 May -1.3 22:21:04 10° WNW 22:23:46 23° NNW 22:26:29 10° NE visible
23 May -0.7 23:59:01 10° NW 00:01:06 16° N 00:03:10 10° NE visible
24 May -1.6 01:35:29 10° NW 01:37:40 25° N 01:37:40 25° N visible
24 May -1.9 21:28:23 10° W 21:31:23 32° NNW 21:34:23 10° NE visible
24 May -0.7 23:06:29 10° NW 23:08:36 16° N 23:10:43 10° NE visible
25 May -1.2 00:43:22 10° NW 00:45:58 21° NNE 00:46:00 21° NNE visible
25 May -0.8 22:13:47 10° NW 22:16:06 18° N 22:18:24 10° NE visible
25 May -1.0 23:51:12 10° NW 23:53:29 17° N 23:54:59 14° NE visible
26 May -0.8 01:27:21 10° NW 01:27:35 12° NW 01:27:35 12° NW visible
26 May -1.1 21:21:01 10° WNW 21:23:37 21° NNW 21:26:13 10° NE visible
26 May -0.8 22:58:52 10° NW 23:00:58 16° N 23:03:05 10° NE visible
27 May -1.3 00:35:12 10° NW 00:36:46 22° NNW 00:36:46 22° NNW visible
27 May -0.8 22:06:21 10° NW 22:08:26 16° N 22:10:31 10° NE visible
27 May -1.6 23:43:04 10° NW 23:45:46 23° NNE 23:46:02 23° NNE visible
28 May -0.9 21:13:40 10° NW 21:15:53 17° N 21:18:08 10° NE visible
28 May -1.2 22:50:52 10° NW 22:53:17 18° NNE 22:55:21 12° NE visible
29 May -1.2 00:27:00 10° NW 00:27:57 18° NW 00:27:57 18° NW visible
29 May -1.0 21:58:34 10° NW 22:00:44 16° N 22:02:54 10° NE visible
29 May -2.1 23:34:49 10° NW 23:37:19 33° N 23:37:19 33° N visible
